Погода в Рудовке

Украина / Черниговская область     50°33′58″N   32°10′03″E
темп.,
°C
ветер,
м/с
пор.,
м/с
влажн.,
%
обл.,
%
осадки,
мм/ч
давл.,
гПа
погр.,
м
16 октября, сб
сб1600:00+6ю37715 0.0 1022113
03:00+5ю347575 0.0 102059
06:00+5ю357943 0.0 102076
09:00+7ю3769100 0.0 1020219
12:00+7ююз3881100 0.1 1019264
15:00+8ююз3789100 0.3 1018289
18:00+7ююз349353 0.0 1018110
21:00+6юз339454 0.0 101936
17 октября, вс
вс1700:00+5з229333 0.0 101916
03:00+5сз229221 0.0 101923
06:00+4ссз339317 0.0 102045
09:00+6сз24865 0.0 1020138
12:00+10сз44655 0.0 1020704
15:00+12зсз445819 0.0 10181102
18:00+8зсз337182 0.0 101923
21:00+6зсз347447 0.0 101956
18 октября, пн
пн1800:00+5сз227560 0.0 101918
03:00+5з2376100 0.0 101939
06:00+5зюз3478100 0.0 101985
09:00+6з367492 0.0 1019184
12:00+10з575583 0.0 1018628
15:00+11з4855100 0.0 10171111
18:00+9з4865100 0.1 1018451
21:00+7з387437 0.1 1017162
19 октября, вт
вт1900:00+6з3783100 0.0 1017182
03:00+7ссз2289100 0.3 1017111
06:00+6с4789100 1.8 1018365
09:00+5ссз510790 1.9 1021415
12:00+8сз69555 0.0 10221060
15:00+9сз795129 0.0 10221582
18:00+5ссз486225 0.0 1024195
21:00+6сз4859100 0.0 1025648
20 октября, ср
ср2000:00+5сз3662100 0.0 1026309
03:00+5зсз2465100 0.1 1027152
06:00+3зсз117579 0.0 102710
09:00+4зюз237117 0.0 1028139
12:00+8юз345174 0.0 1028997
15:00+9юз564659 0.0 10251059
18:00+6ю4957100 0.0 1024203
21:00+7ю6135788 0.0 1022388